| time (UTC) | temp C | wind direction | speed KPH | gust KPH | rain 1hr cm | rain 24hr cm | rain mn cm | humidity % | barometer mb |
| 20260506073219 | 3 | 152 | 1.6 | 6.4 | 0.00 | 0.00 | 0.00 | 91 | 1020.1 |
| 20260506072714 | 3 | 46 | 1.6 | 3.2 | 0.00 | 0.00 | 0.00 | 91 | 1020.1 |
| 20260506072216 | 2 | 234 | 1.6 | 3.2 | 0.00 | 0.00 | 0.00 | 92 | 1020.1 |
| 20260506071710 | 2 | 46 | 1.6 | 3.2 | 0.00 | 0.00 | 0.00 | 92 | 1020.1 |
| 20260506071211 | 2 | 35 | 3.2 | 3.2 | 0.00 | 0.00 | 0.00 | 92 | 1020.1 |
| 20260506070706 | 2 | 53 | 0.0 | 3.2 | 0.00 | 0.00 | 0.00 | 92 | 1020.1 |
| 20260506070436 | 2 | 46 | 1.6 | 3.2 | 0.00 | 0.00 | 0.00 | 92 | 1020.0 |
| 20260506062136 | 1 | 59 | 1.6 | 3.2 | 0.00 | 0.00 | 0.00 | 93 | 1020.0 |
| 20260506061635 | 1 | 46 | 1.6 | 3.2 | 0.00 | 0.00 | 0.00 | 93 | 1020.0 |
| 20260506061137 | 1 | 63 | 0.0 | 3.2 | 0.00 | 0.00 | 0.00 | 93 | 1020.0 |
| 20260506060632 | 1 | 89 | 0.0 | 3.2 | 0.00 | 0.00 | 0.00 | 93 | 1019.9 |
| 20260506060128 | 0 | 89 | 0.0 | 3.2 | 0.00 | 0.00 | 0.00 | 93 | 1020.1 |
| 20260506051053 | 0 | 89 | 1.6 | 3.2 | 0.00 | 0.00 | 0.00 | 92 | 1019.9 |
| 20260506050601 | 0 | 269 | 1.6 | 3.2 | 0.00 | 0.00 | 0.00 | 92 | 1019.9 |
| 20260506045046 | 0 | 108 | 1.6 | 3.2 | 0.00 | 0.00 | 0.00 | 92 | 1019.9 |
| 20260506044541 | 0 | 295 | 0.0 | 1.6 | 0.00 | 0.00 | 0.00 | 92 | 1020.0 |
| 20260506044044 | 0 | 46 | 0.0 | 3.2 | 0.00 | 0.00 | 0.00 | 92 | 1020.0 |
| 20260506043539 | 0 | 105 | 1.6 | 3.2 | 0.00 | 0.00 | 0.00 | 92 | 1019.9 |
| 20260506043029 | 0 | 178 | 1.6 | 3.2 | 0.00 | 0.00 | 0.00 | 92 | 1019.9 |
| 20260506042749 | 0 | 46 | 1.6 | 3.2 | 0.00 | 0.00 | 0.00 | 92 | 1019.9 |
| 20260506042028 | 0 | 178 | 1.6 | 3.2 | 0.00 | 0.00 | 0.00 | 92 | 1020.0 |
| 20260506041747 | 0 | 152 | 1.6 | 3.2 | 0.00 | 0.00 | 0.00 | 92 | 1020.0 |
| 20260506041020 | 0 | 135 | 1.6 | 3.2 | 0.00 | 0.00 | 0.00 | 92 | 1020.0 |
| 20260506040516 | 0 | 89 | 1.6 | 3.2 | 0.00 | 0.00 | 0.00 | 92 | 1020.0 |
| 20260506040011 | 0 | 164 | 1.6 | 3.2 | 0.00 | 0.00 | 0.00 | 92 | 1020.0 |
| 20260506035512 | 0 | 206 | 1.6 | 4.8 | 0.00 | 0.00 | 0.00 | 92 | 1020.0 |
| 20260506035007 | 0 | 1 | 1.6 | 4.8 | 0.00 | 0.00 | 0.00 | 92 | 1019.9 |
| 20260506034726 | 0 | 124 | 1.6 | 4.8 | 0.00 | 0.00 | 0.00 | 91 | 1019.9 |
| 20260506034005 | 0 | 135 | 3.2 | 4.8 | 0.00 | 0.00 | 0.00 | 92 | 1019.9 |
| 20260506033459 | 0 | 145 | 3.2 | 4.8 | 0.00 | 0.00 | 0.00 | 91 | 1019.9 |
| 20260506032959 | 0 | 124 | 1.6 | 4.8 | 0.00 | 0.00 | 0.00 | 91 | 1019.9 |
| 20260506032500 | 0 | 135 | 3.2 | 4.8 | 0.00 | 0.00 | 0.00 | 91 | 1020.0 |
| 20260506031957 | 0 | 102 | 3.2 | 4.8 | 0.00 | 0.00 | 0.00 | 91 | 1020.1 |
| 20260506031453 | 0 | 108 | 1.6 | 4.8 | 0.00 | 0.00 | 0.00 | 91 | 1020.1 |
| 20260506030952 | 0 | 129 | 3.2 | 4.8 | 0.00 | 0.00 | 0.00 | 91 | 1020.1 |
| 20260506030712 | 0 | 89 | 1.6 | 3.2 | 0.00 | 0.00 | 0.00 | 91 | 1020.2 |
| 20260506030205 | 0 | 46 | 1.6 | 3.2 | 0.00 | 0.00 | 0.00 | 91 | 1020.2 |
| 20260506025443 | 0 | 117 | 1.6 | 3.2 | 0.00 | 0.00 | 0.00 | 91 | 1020.2 |
| 20260506024940 | 0 | 63 | 1.6 | 4.8 | 0.00 | 0.00 | 0.00 | 91 | 1020.2 |
| 20260506024700 | 0 | 160 | 3.2 | 4.8 | 0.00 | 0.00 | 0.00 | 91 | 1020.2 |
| 20260506023936 | 0 | 117 | 3.2 | 4.8 | 0.00 | 0.00 | 0.00 | 91 | 1020.3 |
| 20260506023652 | 0 | 108 | 1.6 | 4.8 | 0.00 | 0.00 | 0.00 | 91 | 1020.2 |
| 20260506022932 | 0 | 135 | 3.2 | 4.8 | 0.00 | 0.00 | 0.00 | 90 | 1020.2 |
| 20260506022654 | 0 | 135 | 3.2 | 3.2 | 0.00 | 0.00 | 0.00 | 90 | 1020.2 |
| 20260506022144 | 0 | 314 | 0.0 | 3.2 | 0.00 | 0.00 | 0.00 | 90 | 1020.2 |
| 20260506021423 | 0 | 46 | 1.6 | 3.2 | 0.00 | 0.00 | 0.00 | 90 | 1020.2 |
| 20260506020924 | 1 | 89 | 1.6 | 3.2 | 0.00 | 0.00 | 0.00 | 90 | 1020.3 |
| 20260506020419 | 1 | 121 | 1.6 | 3.2 | 0.00 | 0.00 | 0.00 | 90 | 1020.4 |
| 20260506020142 | 1 | 152 | 1.6 | 3.2 | 0.00 | 0.00 | 0.00 | 90 | 1020.4 |
| 20260506015640 | 1 | 135 | 0.0 | 3.2 | 0.00 | 0.00 | 0.00 | 90 | 1020.4 |
| 20260506014911 | 1 | 135 | 1.6 | 3.2 | 0.00 | 0.00 | 0.00 | 90 | 1020.3 |
| 20260506014413 | 1 | 89 | 0.0 | 1.6 | 0.00 | 0.00 | 0.00 | 90 | 1020.2 |
| 20260506013907 | 1 | 89 | 0.0 | 4.8 | 0.00 | 0.00 | 0.00 | 90 | 1020.3 |
| 20260506013408 | 1 | 89 | 3.2 | 4.8 | 0.00 | 0.00 | 0.00 | 90 | 1020.4 |
| 20260506012904 | 1 | 135 | 3.2 | 4.8 | 0.00 | 0.00 | 0.00 | 89 | 1020.4 |
| 20260506012359 | 1 | 206 | 1.6 | 4.8 | 0.00 | 0.00 | 0.00 | 89 | 1020.4 |
| 20260506011856 | 1 | 135 | 3.2 | 4.8 | 0.00 | 0.00 | 0.00 | 89 | 1020.4 |
| 20260506011350 | 1 | 160 | 1.6 | 3.2 | 0.00 | 0.00 | 0.00 | 89 | 1020.4 |
| 20260506010847 | 2 | 46 | 1.6 | 3.2 | 0.00 | 0.00 | 0.00 | 89 | 1020.4 |
| 20260506010341 | 2 | 178 | 1.6 | 3.2 | 0.00 | 0.00 | 0.00 | 89 | 1020.4 |
| 20260506005843 | 2 | 178 | 1.6 | 3.2 | 0.00 | 0.00 | 0.00 | 89 | 1020.4 |
| 20260506005338 | 2 | 1 | 1.6 | 1.6 | 0.00 | 0.00 | 0.00 | 89 | 1020.3 |
| 20260506004838 | 2 | 46 | 0.0 | 3.2 | 0.00 | 0.00 | 0.00 | 88 | 1020.4 |
| 20260506004333 | 2 | 152 | 1.6 | 3.2 | 0.00 | 0.00 | 0.00 | 88 | 1020.3 |
| 20260506004057 | 2 | 135 | 1.6 | 3.2 | 0.00 | 0.00 | 0.00 | 88 | 1020.3 |
| 20260506003330 | 2 | 135 | 1.6 | 3.2 | 0.00 | 0.00 | 0.00 | 88 | 1020.2 |
| 20260506002825 | 2 | 89 | 1.6 | 3.2 | 0.00 | 0.00 | 0.00 | 88 | 1020.4 |
| 20260506002326 | 2 | 117 | 1.6 | 3.2 | 0.00 | 0.00 | 0.00 | 88 | 1020.3 |
| 20260506001816 | 2 | 142 | 1.6 | 3.2 | 0.00 | 0.00 | 0.00 | 87 | 1020.3 |
| 20260506001543 | 2 | 89 | 1.6 | 3.2 | 0.00 | 0.00 | 0.00 | 87 | 1020.4 |
| 20260506000813 | 2 | 89 | 1.6 | 3.2 | 0.00 | 0.00 | 0.00 | 87 | 1020.3 |
| 20260506000309 | 3 | 89 | 1.6 | 3.2 | 0.00 | 0.00 | 0.00 | 87 | 1020.4 |
| 20260505235804 | 3 | 1 | 0.0 | 1.6 | 0.00 | 0.00 | 0.00 | 87 | 1020.3 |
| 20260505235258 | 3 | 89 | 0.0 | 1.6 | 0.00 | 0.00 | 0.00 | 87 | 1020.4 |
| 20260505234754 | 3 | 1 | 0.0 | 4.8 | 0.00 | 0.00 | 0.00 | 86 | 1020.5 |
| 20260505234250 | 3 | 135 | 1.6 | 4.8 | 0.00 | 0.00 | 0.00 | 86 | 1020.4 |
| 20260505233745 | 3 | 135 | 1.6 | 3.2 | 0.00 | 0.00 | 0.00 | 86 | 1020.5 |
| 20260505233246 | 3 | 223 | 0.0 | 3.2 | 0.00 | 0.00 | 0.00 | 86 | 1020.5 |
| 20260505232741 | 3 | 127 | 1.6 | 3.2 | 0.00 | 0.00 | 0.00 | 86 | 1020.4 |
| 20260505232241 | 4 | 46 | 0.0 | 3.2 | 0.00 | 0.00 | 0.00 | 85 | 1020.6 |
| 20260505231737 | 4 | 135 | 0.0 | 3.2 | 0.00 | 0.00 | 0.00 | 85 | 1020.6 |
| 20260505231233 | 4 | 63 | 1.6 | 3.2 | 0.00 | 0.00 | 0.00 | 85 | 1020.6 |
| 20260505230947 | 4 | 56 | 1.6 | 3.2 | 0.00 | 0.00 | 0.00 | 84 | 1020.7 |
| 20260505230224 | 4 | 89 | 0.0 | 3.2 | 0.00 | 0.00 | 0.00 | 84 | 1020.6 |
| 20260505225725 | 4 | 117 | 1.6 | 1.6 | 0.00 | 0.00 | 0.00 | 84 | 1020.5 |
| 20260505225442 | 4 | 46 | 0.0 | 3.2 | 0.00 | 0.00 | 0.00 | 83 | 1020.6 |
| 20260505224720 | 5 | 46 | 0.0 | 3.2 | 0.00 | 0.00 | 0.00 | 83 | 1020.6 |
| 20260505224216 | 5 | 178 | 1.6 | 3.2 | 0.00 | 0.00 | 0.00 | 83 | 1020.7 |
| 20260505223712 | 5 | 135 | 1.6 | 3.2 | 0.00 | 0.00 | 0.00 | 82 | 1020.7 |
| 20260505223207 | 5 | 46 | 1.6 | 3.2 | 0.00 | 0.00 | 0.00 | 82 | 1020.6 |
| 20260505222707 | 5 | 35 | 1.6 | 4.8 | 0.00 | 0.00 | 0.00 | 82 | 1020.7 |
| 20260505222203 | 5 | 46 | 1.6 | 4.8 | 0.00 | 0.00 | 0.00 | 82 | 1020.7 |
| 20260505221705 | 5 | 58 | 1.6 | 4.8 | 0.00 | 0.00 | 0.00 | 82 | 1020.7 |
| 20260505221159 | 5 | 46 | 3.2 | 6.4 | 0.00 | 0.00 | 0.00 | 81 | 1020.8 |
| 20260505220918 | 5 | 51 | 3.2 | 6.4 | 0.00 | 0.00 | 0.00 | 80 | 1020.6 |
| 20260505220151 | 5 | 46 | 1.6 | 4.8 | 0.00 | 0.00 | 0.00 | 80 | 1020.6 |
| 20260505215646 | 5 | 53 | 3.2 | 6.4 | 0.00 | 0.00 | 0.00 | 80 | 1020.6 |
| 20260505215409 | 5 | 41 | 4.8 | 6.4 | 0.00 | 0.00 | 0.00 | 80 | 1020.5 |
| 20260505214913 | 5 | 28 | 1.6 | 6.4 | 0.00 | 0.00 | 0.00 | 80 | 1020.5 |
| 20260505214138 | 5 | 32 | 4.8 | 6.4 | 0.00 | 0.00 | 0.00 | 79 | 1020.6 |
| 20260505213633 | 5 | 39 | 3.2 | 6.4 | 0.00 | 0.00 | 0.00 | 79 | 1020.5 |
| 20260505213129 | 5 | 68 | 3.2 | 8.0 | 0.00 | 0.00 | 0.00 | 79 | 1020.6 |
| 20260505212631 | 5 | 46 | 3.2 | 8.0 | 0.00 | 0.00 | 0.00 | 79 | 1020.7 |
| 20260505212126 | 6 | 63 | 3.2 | 8.0 | 0.00 | 0.00 | 0.00 | 79 | 1020.6 |
| 20260505211847 | 6 | 56 | 4.8 | 8.0 | 0.00 | 0.00 | 0.00 | 79 | 1020.7 |
| 20260505211116 | 6 | 53 | 1.6 | 6.4 | 0.00 | 0.00 | 0.00 | 79 | 1020.6 |
| 20260505210836 | 6 | 28 | 1.6 | 6.4 | 0.00 | 0.00 | 0.00 | 78 | 1020.6 |
| 20260505210107 | 6 | 46 | 3.2 | 6.4 | 0.00 | 0.00 | 0.00 | 78 | 1020.5 |
| 20260505205608 | 6 | 28 | 3.2 | 8.0 | 0.00 | 0.00 | 0.00 | 78 | 1020.6 |
| 20260505205105 | 6 | 63 | 3.2 | 8.0 | 0.00 | 0.00 | 0.00 | 78 | 1020.6 |
| 20260505205053 | 6 | 49 | 6.4 | 8.0 | 0.00 | 0.00 | 0.00 | 77 | 1020.7 |
| 20260505204059 | 6 | 46 | 3.2 | 6.4 | 0.00 | 0.00 | 0.00 | 77 | 1020.6 |
| 20260505203826 | 6 | 58 | 4.8 | 9.7 | 0.00 | 0.00 | 0.00 | 77 | 1020.7 |
| 20260505203055 | 6 | 8 | 4.8 | 9.7 | 0.00 | 0.00 | 0.00 | 77 | 1020.7 |
| 20260505202557 | 6 | 63 | 3.2 | 6.4 | 0.00 | 0.00 | 0.00 | 77 | 1020.7 |
| 20260505202053 | 6 | 25 | 3.2 | 8.0 | 0.00 | 0.00 | 0.00 | 76 | 1020.7 |
| 20260505201546 | 6 | 53 | 3.2 | 9.7 | 0.00 | 0.00 | 0.00 | 77 | 1020.7 |
| 20260505201042 | 6 | 58 | 3.2 | 9.7 | 0.00 | 0.00 | 0.00 | 77 | 1020.6 |
| 20260505200538 | 6 | 25 | 3.2 | 8.0 | 0.00 | 0.00 | 0.00 | 76 | 1020.6 |
| 20260505200302 | 6 | 46 | 4.8 | 9.7 | 0.00 | 0.00 | 0.00 | 76 | 1020.4 |
| 20260505195530 | 6 | 54 | 6.4 | 11.3 | 0.00 | 0.00 | 0.00 | 75 | 1020.5 |
| 20260505195029 | 6 | 60 | 3.2 | 11.3 | 0.00 | 0.00 | 0.00 | 75 | 1020.5 |
| 20260505194526 | 6 | 47 | 4.8 | 9.7 | 0.00 | 0.00 | 0.00 | 75 | 1020.5 |
| 20260505194025 | 6 | 44 | 4.8 | 9.7 | 0.00 | 0.00 | 0.00 | 75 | 1020.6 |
| 20260505193522 | 6 | 46 | 4.8 | 11.3 | 0.00 | 0.00 | 0.00 | 75 | 1020.6 |
| 20260505193240 | 6 | 28 | 3.2 | 14.5 | 0.00 | 0.00 | 0.00 | 74 | 1020.5 |
| 20260505192517 | 6 | 18 | 6.4 | 16.1 | 0.00 | 0.00 | 0.00 | 74 | 1020.4 |
| 20260505192013 | 6 | 63 | 8.0 | 16.1 | 0.00 | 0.00 | 0.00 | 73 | 1020.2 |
| 20260505191509 | 6 | 18 | 8.0 | 20.9 | 0.00 | 0.00 | 0.00 | 73 | 1020.2 |
| 20260505191009 | 6 | 41 | 9.7 | 20.9 | 0.00 | 0.00 | 0.00 | 73 | 1020.2 |
| 20260505190504 | 7 | 15 | 9.7 | 17.7 | 0.00 | 0.00 | 0.00 | 73 | 1020.2 |
| 20260505190220 | 7 | 25 | 8.0 | 16.1 | 0.00 | 0.00 | 0.00 | 73 | 1020.2 |
| 20260505185500 | 7 | 14 | 9.7 | 16.1 | 0.00 | 0.00 | 0.00 | 73 | 1020.2 |
| 20260505185001 | 7 | 23 | 6.4 | 17.7 | 0.00 | 0.00 | 0.00 | 73 | 1020.2 |
| 20260505184456 | 7 | 6 | 9.7 | 20.9 | 0.00 | 0.00 | 0.00 | 73 | 1020.1 |
| 20260505184218 | 7 | 58 | 9.7 | 20.9 | 0.00 | 0.00 | 0.00 | 73 | 1020.2 |
| 20260505183715 | 7 | 6 | 9.7 | 17.7 | 0.00 | 0.00 | 0.00 | 73 | 1020.2 |
| 20260505182948 | 7 | 32 | 8.0 | 17.7 | 0.00 | 0.00 | 0.00 | 73 | 1020.2 |
| 20260505182444 | 7 | 350 | 9.7 | 19.3 | 0.00 | 0.00 | 0.00 | 73 | 1020.2 |
| 20260505182207 | 7 | 44 | 9.7 | 19.3 | 0.00 | 0.00 | 0.00 | 74 | 1020.0 |
| 20260505181445 | 7 | 349 | 6.4 | 20.9 | 0.00 | 0.00 | 0.00 | 74 | 1020.2 |
| 20260505180940 | 7 | 1 | 11.3 | 20.9 | 0.00 | 0.00 | 0.00 | 73 | 1020.1 |
| 20260505180701 | 7 | 21 | 9.7 | 25.7 | 0.00 | 0.00 | 0.00 | 74 | 1020.1 |
| 20260505175938 | 7 | 356 | 12.9 | 27.4 | 0.00 | 0.00 | 0.00 | 74 | 1020.0 |
| 20260505175437 | 7 | 13 | 14.5 | 27.4 | 0.00 | 0.00 | 0.00 | 76 | 1019.9 |
| 20260505174932 | 7 | 20 | 11.3 | 25.7 | 0.00 | 0.00 | 0.00 | 76 | 1020.0 |
| 20260505174433 | 7 | 1 | 9.7 | 19.3 | 0.00 | 0.00 | 0.00 | 77 | 1020.0 |
| 20260505173928 | 7 | 1 | 9.7 | 19.3 | 0.00 | 0.00 | 0.00 | 79 | 1020.0 |
| 20260505173645 | 7 | 23 | 6.4 | 19.3 | 0.00 | 0.00 | 0.00 | 79 | 1020.1 |
| 20260505172920 | 7 | 1 | 9.7 | 19.3 | 0.00 | 0.00 | 0.00 | 79 | 1020.2 |
| 20260505172646 | 7 | 11 | 11.3 | 20.9 | 0.00 | 0.00 | 0.00 | 79 | 1020.1 |
| 20260505171915 | 7 | 37 | 11.3 | 20.9 | 0.00 | 0.00 | 0.00 | 79 | 1020.1 |
| 20260505171633 | 7 | 4 | 9.7 | 20.9 | 0.00 | 0.00 | 0.00 | 78 | 1020.1 |
| 20260505170912 | 7 | 25 | 8.0 | 20.9 | 0.00 | 0.00 | 0.00 | 78 | 1020.2 |
| 20260505170412 | 7 | 1 | 8.0 | 22.5 | 0.00 | 0.00 | 0.00 | 78 | 1020.2 |
| 20260505170131 | 7 | 18 | 9.7 | 22.5 | 0.00 | 0.00 | 0.00 | 77 | 1020.1 |
| 20260505165409 | 7 | 1 | 9.7 | 20.9 | 0.00 | 0.00 | 0.00 | 77 | 1020.0 |
| 20260505165128 | 7 | 11 | 9.7 | 19.3 | 0.00 | 0.00 | 0.00 | 79 | 1020.1 |
| 20260505164405 | 7 | 21 | 9.7 | 20.9 | 0.00 | 0.00 | 0.00 | 78 | 1020.0 |
| 20260505163900 | 7 | 32 | 11.3 | 22.5 | 0.00 | 0.00 | 0.00 | 78 | 1020.0 |
| 20260505163401 | 7 | 21 | 12.9 | 22.5 | 0.00 | 0.00 | 0.00 | 78 | 1020.1 |
| 20260505162856 | 7 | 16 | 9.7 | 19.3 | 0.00 | 0.00 | 0.00 | 79 | 1020.0 |
| 20260505162352 | 7 | 11 | 9.7 | 22.5 | 0.00 | 0.00 | 0.00 | 79 | 1020.0 |
| 20260505161852 | 7 | 39 | 12.9 | 22.5 | 0.00 | 0.00 | 0.00 | 79 | 1020.1 |
| 20260505161348 | 7 | 6 | 9.7 | 19.3 | 0.00 | 0.00 | 0.00 | 79 | 1020.0 |
| 20260505160843 | 7 | 20 | 9.7 | 19.3 | 0.00 | 0.00 | 0.00 | 79 | 1020.0 |
| 20260505160339 | 7 | 4 | 9.7 | 19.3 | 0.00 | 0.00 | 0.00 | 79 | 1019.9 |
| 20260505153322 | 7 | 18 | 12.9 | 22.5 | 0.00 | 0.00 | 0.00 | 80 | 1019.9 |
| 20260505152819 | 7 | 18 | 11.3 | 22.5 | 0.00 | 0.00 | 0.00 | 81 | 1020.0 |
| 20260505152314 | 7 | 13 | 11.3 | 19.3 | 0.00 | 0.00 | 0.00 | 82 | 1019.9 |
| 20260505151813 | 7 | 350 | 8.0 | 14.5 | 0.00 | 0.00 | 0.00 | 83 | 1020.0 |
| 20260505151309 | 7 | 6 | 6.4 | 16.1 | 0.00 | 0.00 | 0.00 | 83 | 1019.9 |
| 20260505150809 | 7 | 25 | 8.0 | 19.3 | 0.00 | 0.00 | 0.00 | 82 | 1020.0 |
| 20260505150305 | 7 | 16 | 11.3 | 25.7 | 0.00 | 0.00 | 0.00 | 81 | 1020.1 |
| 20260505140241 | 8 | 4 | 9.7 | 20.9 | 0.00 | 0.00 | 0.00 | 80 | 1019.7 |
| 20260505130213 | 7 | 13 | 11.3 | 24.1 | 0.00 | 0.00 | 0.00 | 80 | 1019.6 |
| 20260505124709 | 8 | 333 | 16.1 | 27.4 | 0.00 | 0.00 | 0.00 | 80 | 1019.4 |
| 20260505124652 | 7 | 8 | 14.5 | 29.0 | 0.00 | 0.00 | 0.00 | 80 | 1019.4 |
| 20260505123705 | 8 | 6 | 16.1 | 29.0 | 0.00 | 0.00 | 0.00 | 81 | 1019.4 |
| 20260505123201 | 8 | 342 | 14.5 | 30.6 | 0.00 | 0.00 | 0.00 | 82 | 1019.2 |
| 20260505122701 | 8 | 23 | 14.5 | 30.6 | 0.00 | 0.00 | 0.00 | 81 | 1019.2 |
| 20260505122158 | 8 | 14 | 14.5 | 24.1 | 0.00 | 0.00 | 0.00 | 82 | 1019.1 |
| 20260505121654 | 8 | 13 | 16.1 | 27.4 | 0.00 | 0.00 | 0.00 | 83 | 1019.1 |
| 20260505121148 | 7 | 23 | 17.7 | 27.4 | 0.00 | 0.00 | 0.00 | 83 | 1019.0 |
| 20260505120644 | 7 | 8 | 12.9 | 25.7 | 0.00 | 0.00 | 0.00 | 84 | 1019.0 |
| 20260505120140 | 7 | 18 | 14.5 | 25.7 | 0.00 | 0.00 | 0.00 | 85 | 1019.0 |
| 20260505115637 | 7 | 1 | 11.3 | 22.5 | 0.00 | 0.00 | 0.00 | 85 | 1019.0 |
| 20260505115136 | 7 | 4 | 12.9 | 25.7 | 0.00 | 0.00 | 0.00 | 85 | 1019.1 |
| 20260505114632 | 7 | 54 | 11.3 | 25.7 | 0.00 | 0.00 | 0.00 | 85 | 1019.1 |
| 20260505114132 | 7 | 356 | 12.9 | 30.6 | 0.00 | 0.00 | 0.00 | 85 | 1019.0 |
| 20260505113629 | 7 | 4 | 17.7 | 32.2 | 0.00 | 0.00 | 0.00 | 83 | 1018.9 |
| 20260505113122 | 8 | 16 | 17.7 | 32.2 | 0.00 | 0.00 | 0.00 | 83 | 1018.9 |
| 20260505112623 | 8 | 348 | 12.9 | 29.0 | 0.00 | 0.00 | 0.00 | 83 | 1018.8 |
| 20260505112344 | 8 | 72 | 12.9 | 29.0 | 0.00 | 0.00 | 0.00 | 83 | 1018.8 |
| 20260505111614 | 8 | 37 | 14.5 | 29.0 | 0.00 | 0.00 | 0.00 | 83 | 1018.7 |
| 20260505111115 | 8 | 35 | 12.9 | 27.4 | 0.00 | 0.00 | 0.00 | 81 | 1018.6 |
| 20260505110627 | 8 | 37 | 16.1 | 27.4 | 0.00 | 0.00 | 0.00 | 79 | 1018.7 |
| 20260505110110 | 9 | 16 | 12.9 | 22.5 | 0.00 | 0.00 | 0.00 | 77 | 1018.6 |
| 20260505101550 | 10 | 13 | 9.7 | 20.9 | 0.00 | 0.00 | 0.00 | 76 | 1018.5 |
| 20260505101045 | 9 | 1 | 9.7 | 20.9 | 0.00 | 0.00 | 0.00 | 77 | 1018.5 |
| 20260505100546 | 9 | 37 | 8.0 | 22.5 | 0.00 | 0.00 | 0.00 | 80 | 1018.4 |
| 20260505100041 | 8 | 1 | 9.7 | 22.5 | 0.00 | 0.00 | 0.00 | 79 | 1018.4 |
| 20260505095537 | 8 | 8 | 9.7 | 17.7 | 0.00 | 0.00 | 0.00 | 80 | 1018.4 |
| 20260505095258 | 8 | 349 | 9.7 | 19.3 | 0.00 | 0.00 | 0.00 | 80 | 1018.4 |
| 20260505095020 | 8 | 20 | 11.3 | 19.3 | 0.00 | 0.00 | 0.00 | 81 | 1018.3 |
| 20260505094033 | 8 | 37 | 11.3 | 19.3 | 0.00 | 0.00 | 0.00 | 80 | 1018.3 |
| 20260505093530 | 8 | 18 | 9.7 | 20.9 | 0.00 | 0.00 | 0.00 | 79 | 1018.3 |
| 20260505093030 | 8 | 13 | 12.9 | 22.5 | 0.00 | 0.00 | 0.00 | 79 | 1018.3 |
| 20260505092525 | 8 | 44 | 9.7 | 24.1 | 0.00 | 0.00 | 0.00 | 79 | 1018.3 |
| 20260505092026 | 8 | 17 | 12.9 | 24.1 | 0.00 | 0.00 | 0.00 | 80 | 1018.2 |
| 20260505091522 | 8 | 30 | 11.3 | 20.9 | 0.00 | 0.00 | 0.00 | 80 | 1018.2 |
| 20260505091018 | 8 | 8 | 8.0 | 22.5 | 0.00 | 0.00 | 0.00 | 80 | 1018.1 |
| 20260505090513 | 8 | 1 | 12.9 | 24.1 | 0.00 | 0.00 | 0.00 | 80 | 1018.1 |
| 20260505090019 | 8 | 1 | 16.1 | 24.1 | 0.00 | 0.00 | 0.00 | 80 | 1018.1 |
| 20260505085508 | 8 | 354 | 8.0 | 19.3 | 0.00 | 0.00 | 0.00 | 82 | 1018.0 |
| 20260505085009 | 8 | 56 | 9.7 | 22.5 | 0.00 | 0.00 | 0.00 | 83 | 1018.1 |
| 20260505084949 | 8 | 18 | 11.3 | 22.5 | 0.00 | 0.00 | 0.00 | 83 | 1018.1 |
| 20260505084000 | 8 | 37 | 9.7 | 17.7 | 0.00 | 0.00 | 0.00 | 83 | 1017.9 |
| 20260505083501 | 8 | 334 | 11.3 | 17.7 | 0.00 | 0.00 | 0.00 | 83 | 1017.9 |
| 20260505082956 | 8 | 11 | 9.7 | 19.3 | 0.00 | 0.00 | 0.00 | 82 | 1018.0 |
| 20260505082456 | 8 | 18 | 9.7 | 35.4 | 0.00 | 0.00 | 0.00 | 82 | 1018.0 |
| 20260505081952 | 8 | 35 | 17.7 | 35.4 | 0.00 | 0.00 | 0.00 | 82 | 1017.8 |
| 20260505081453 | 8 | 321 | 12.9 | 25.7 | 0.00 | 0.00 | 0.00 | 83 | 1017.8 |
| 20260505080948 | 9 | 8 | 11.3 | 19.3 | 0.00 | 0.00 | 0.00 | 83 | 1017.7 |
| 20260505080444 | 9 | 84 | 9.7 | 20.9 | 0.00 | 0.00 | 0.00 | 83 | 1017.6 |
| 20260505075940 | 9 | 18 | 14.5 | 20.9 | 0.00 | 0.00 | 0.00 | 82 | 1017.6 |
| 20260505075435 | 9 | 20 | 8.0 | 16.1 | 0.00 | 0.00 | 0.00 | 83 | 1017.5 |
| 20260505074935 | 9 | 23 | 6.4 | 14.5 | 0.00 | 0.00 | 0.00 | 83 | 1017.4 |
| 20260505074431 | 8 | 6 | 9.7 | 14.5 | 0.00 | 0.00 | 0.00 | 83 | 1017.4 |
| 20260505073932 | 8 | 350 | 4.8 | 14.5 | 0.00 | 0.00 | 0.00 | 84 | 1017.3 |
| 20260505073427 | 8 | 47 | 6.4 | 14.5 | 0.00 | 0.00 | 0.00 | 84 | 1017.3 |